Home > Weather > Singapore > Past weeks

Flag for Singapore Weather for the Past 2 Weeks in Singapore, Singapore

Now
88 °F

Passing clouds.


Feels Like: 102 °F
Forecast: 81 / 94 °F
Wind: No wind

Location: Singapore / Paya Lebar

Current Time: May 3, 2016 at 11:15:04 PM

Latest Report: May 3, 2016 at 10:00 PM


Visibility: N/A

Pressure: 29.83 "Hg

Humidity: 75%

Dew Point: 79 °F

Location of SingaporeLocation

Historic Weather in Singapore — Graph

°F

Singapore Temperature Yesterday

Maximum temperature yesterday: 93 °F (at 1:00 PM)
Minimum temperature yesterday: 82 °F (at 7:00 AM)
Average temperature yesterday: 86 °F

High & Low Weather Summary for the Past Weeks

 TemperatureHumidityPressure
High97 °F (Apr 19, 2:00 PM)94% (Apr 24, 7:00 AM)29.86 "Hg (Apr 24, 7:00 AM)
Low79 °F (Apr 25, 7:00 AM)39% (May 3, 3:00 PM)29.68 "Hg (Apr 24, 5:00 PM)
Average86 °F75%29.79 "Hg
* Reported Apr 18 10:00 PM — May 3 10:00 PM, Singapore, Weather by CustomWeather, © 2016

Note: Actual official high and low records may vary slightly from our data, if they occured in-between our weather recording intervals... More about our weather records

Advertising

Singapore Weather History for the Previous 24 Hours

Scroll right to see more
 ConditionsComfort  
Time TempWeatherWind HumidityBarometerVisibility
10:00 PM
Tue, May 3
88 °FPassing clouds.No wind75%29.83 "HgN/A
9:00 PM88 °FPassing clouds.3 mph75%29.80 "HgN/A
8:00 PM88 °FPassing clouds.3 mph75%29.77 "HgN/A
7:00 PM90 °FPartly sunny.6 mph67%29.77 "HgN/A
6:00 PM90 °FScattered clouds.7 mph71%29.74 "HgN/A
5:00 PM90 °FScattered clouds.7 mph67%29.74 "HgN/A
4:00 PM93 °FScattered clouds.9 mph56%29.74 "HgN/A
3:00 PM97 °FPartly sunny.6 mph39%29.74 "HgN/A
2:00 PM95 °FPartly sunny.6 mph50%29.77 "HgN/A
1:00 PM91 °FPartly sunny.6 mph56%29.80 "HgN/A
12:00 PM91 °FPartly sunny.5 mph63%29.80 "HgN/A
11:00 AM90 °FPartly sunny.3 mph67%29.80 "HgN/A
10:00 AM90 °FPartly sunny.3 mph71%29.83 "HgN/A
9:00 AM86 °FPartly sunny.1 mph79%29.83 "Hg4 mi
8:00 AM82 °FPartly sunny.No wind89%29.80 "Hg4 mi
7:00 AM82 °FPartly sunny.3 mph89%29.80 "Hg5 mi
6:00 AM82 °FPassing clouds.No wind84%29.77 "HgN/A
5:00 AM82 °FPassing clouds.No wind84%29.77 "HgN/A
11:00 PM
Mon, May 2
84 °FPassing clouds.No wind84%29.83 "HgN/A
Weather by CustomWeather, © 2016

See weather overviewHow to use our weather pages